Weather Roundup
Issued by NWS Springfield, MO

Home | Current Version | Previous Version | Text Only | Print | Product List | Glossary On
Versions: 1 2 3 4 5 6 7 8 9 10 11 12 13 14 15 16 17 18 19 20 21 22 23 24 25 26 27 28 29 30 31 32 33 34 35 36 37 38 39 40 41 42 43 44 45 46 47 48 49 50
000
NZUS99 KSGF 190107
HRRSGF

HOURLY WEATHER
NATIONAL WEATHER SERVICE SPRINGFIELD MO
700 PM CST WED JAN 18 2017

......SGF CWA......

CITY           SKY/WX    TMP DP  RH WIND       PRES   REMARKS
SPRINGFIELD    CLOUDY    45  40  82 SE17      30.02F
JOPLIN         CLOUDY    50  44  80 S7        30.01F
WEST PLAINS    CLOUDY    42  39  89 E5        30.08F
ROLLA          CLOUDY    45  36  70 SE9       30.03F
OSAGE BEACH    CLOUDY    49  35  58 S6        30.04F
BRANSON        CLOUDY    39  39 100 SE6       30.06S FOG     WCI  35

......SURROUNDING SGF CWA......

CITY           SKY/WX    TMP DP  RH WIND       PRES   REMARKS
CHANUTE        CLOUDY    46  40  79 SE5       29.99F
PARSONS        CLOUDY    48  42  80 SE3       29.99F
COFFEYVILLE    CLOUDY    49  42  77 SE6       29.99F
EMPORIA        MOCLDY    43  35  73 SE9       29.95F
GROVE OK       CLOUDY    48  46  93 CALM      30.03F
ROGERS AR      LGT RAIN  46  45  96 E6        30.03S FOG
SILOAM SPRINGS CLOUDY    46  45  93 SE5       30.01S
HARRISON AR    CLOUDY    42  41  96 SE8       30.05S
NEAR YELLVILLE CLOUDY    45  37  76 E5        30.05F

......KANSAS AND MISSOURI......

CITY           SKY/WX    TMP DP  RH WIND       PRES   REMARKS
KANSAS CTY INT CLEAR     37  32  82 S8        29.99S WCI  31
DOWNTOWN KC    CLEAR     42  36  79 CALM      30.01R
COLUMBIA       CLOUDY    45  35  68 E6        30.04F
SEDALIA        CLOUDY    46  38  73 SE6       30.03F
ST JOSEPH      CLEAR     38  36  92 SE3       29.98F
ST LOUIS       CLOUDY    45  35  68 SE7       30.09F
SPIRIT OF STL  CLOUDY    44  37  76 SE3       30.09F
KIRKSVILLE     FOG       34  34 100 CALM      30.03F VSB 3/4
WICHITA        PTCLDY    45  38  76 S3        29.93S
TOPEKA         PTCLDY    42  35  76 SE6       29.97S
OLATHE         CLEAR     40  39  97 CALM      30.00R

......TENNESSEE......

CITY           SKY/WX    TMP DP  RH WIND       PRES   REMARKS
MEMPHIS        CLOUDY    55  45  68 E3        30.07S
NASHVILLE      CLOUDY    47  40  76 CALM      30.14S

......ARKANSAS.......

CITY           SKY/WX    TMP DP  RH WIND       PRES   REMARKS
FAYETTEVILLE   CLOUDY    47  47 100 CALM      30.02F FOG
FT SMITH       CLOUDY    46  43  89 E7        30.05S FOG
LITTLE ROCK    CLOUDY    46  46 100 NE8       30.04S

......OKLAHOMA.......

CITY           SKY/WX    TMP DP  RH WIND       PRES   REMARKS
TULSA          CLOUDY    48  46  93 SE8       30.00F
PONCA CITY     CLOUDY    51  38  60 SE9       29.95F
MCALESTER      CLOUDY    48  45  89 E3        30.00F
OKLAHOMA CITY  CLOUDY    50  44  80 S8        29.96R

......IOWA............

CITY           SKY/WX    TMP DP  RH WIND       PRES   REMARKS
DES MOINES     CLEAR     37  33  85 S13       29.98R WCI  29
QUAD CITIES    CLEAR     31  28  89 E3        30.05S FOG

......ILLINOIS........

CITY           SKY/WX    TMP DP  RH WIND       PRES   REMARKS
QUINCY         CLEAR     37  34  89 S3        30.05S
CHICAGO        CLOUDY    35  32  88 SW10G17   30.07F WCI  27



USA.gov is the U.S. government's official web portal to all federal, state and local government web resources and services.